| time (UTC) | temp F | wind direction | speed MPH | gust MPH | rain 1hr in | rain 24hr in | rain mn in | humidity % | barometer mb |
| 20260903233107 | 89 | 100 | 2.0 | 9.0 | 0.00 | 0.52 | 0.02 | 62 | 1011.2 |
| 20260903233100 | 89 | 100 | 3.0 | 9.0 | 0.00 | 0.52 | 0.02 | 50 | 1011.8 |
| 20260903231604 | 89 | 188 | 4.0 | 9.0 | 0.00 | 0.52 | 0.02 | 50 | 1011.9 |
| 20260903231548 | 89 | 188 | 4.0 | 7.0 | 0.00 | 0.52 | 0.02 | 61 | 1011.3 |
| 20260903230109 | 90 | 181 | 4.0 | 9.0 | 0.00 | 0.52 | 0.02 | 49 | 1011.9 |
| 20260903230105 | 90 | 175 | 5.0 | 7.0 | 0.00 | 0.52 | 0.02 | 60 | 1011.3 |
| 20260903224605 | 90 | 181 | 4.0 | 9.0 | 0.00 | 0.54 | 0.02 | 49 | 1012.0 |
| 20260903224556 | 90 | 181 | 4.0 | 9.0 | 0.00 | 0.54 | 0.02 | 61 | 1011.4 |
| 20260903223111 | 90 | 182 | 2.0 | 9.0 | 0.00 | 0.54 | 0.02 | 62 | 1011.5 |
| 20260903223101 | 90 | 181 | 3.0 | 10.0 | 0.00 | 0.54 | 0.02 | 50 | 1012.1 |
| 20260903221600 | 89 | 142 | 3.0 | 9.0 | 0.00 | 0.54 | 0.02 | 51 | 1012.3 |
| 20260903221542 | 89 | 148 | 2.0 | 8.0 | 0.00 | 0.54 | 0.02 | 63 | 1011.8 |
| 20260903220107 | 90 | 127 | 5.0 | 12.0 | 0.00 | 0.54 | 0.02 | 48 | 1012.6 |
| 20260903220040 | 90 | 127 | 4.0 | 10.0 | 0.00 | 0.54 | 0.02 | 59 | 1011.9 |
| 20260903214600 | 90 | 153 | 4.0 | 12.0 | 0.00 | 0.54 | 0.02 | 49 | 1012.8 |
| 20260903214546 | 90 | 153 | 2.0 | 11.0 | 0.00 | 0.54 | 0.02 | 60 | 1012.1 |
| 20260903213100 | 90 | 161 | 4.0 | 15.0 | 0.00 | 0.54 | 0.02 | 51 | 1012.9 |
| 20260903213048 | 90 | 147 | 5.0 | 14.0 | 0.00 | 0.54 | 0.02 | 63 | 1012.2 |
| 20260903211602 | 89 | 174 | 4.0 | 8.0 | 0.00 | 0.54 | 0.02 | 49 | 1012.9 |
| 20260903211541 | 89 | 174 | 4.0 | 6.0 | 0.00 | 0.54 | 0.02 | 60 | 1012.2 |
| 20260903210047 | 91 | 184 | 4.0 | 10.0 | 0.00 | 0.54 | 0.02 | 59 | 1012.5 |
| 20260903204602 | 90 | 199 | 4.0 | 9.0 | 0.00 | 0.54 | 0.02 | 49 | 1012.9 |
| 20260903204547 | 90 | 200 | 4.0 | 8.0 | 0.00 | 0.54 | 0.02 | 61 | 1012.4 |
| 20260903203101 | 90 | 178 | 6.0 | 10.0 | 0.00 | 0.54 | 0.02 | 48 | 1013.0 |
| 20260903203049 | 90 | 154 | 7.0 | 10.0 | 0.00 | 0.54 | 0.02 | 59 | 1012.5 |
| 20260903201601 | 89 | 153 | 2.0 | 6.0 | 0.00 | 0.54 | 0.02 | 45 | 1013.0 |
| 20260903201543 | 89 | 157 | 3.0 | 8.0 | 0.00 | 0.54 | 0.02 | 57 | 1012.6 |
| 20260903200101 | 89 | 188 | 1.0 | 8.0 | 0.00 | 0.54 | 0.02 | 47 | 1013.1 |
| 20260903194607 | 90 | 184 | 3.0 | 7.0 | 0.00 | 0.54 | 0.02 | 46 | 1013.2 |
| 20260903194559 | 90 | 171 | 3.0 | 7.0 | 0.00 | 0.54 | 0.02 | 57 | 1012.8 |
| 20260903193118 | 90 | 166 | 2.0 | 7.0 | 0.00 | 0.54 | 0.02 | 46 | 1013.5 |
| 20260903193056 | 90 | 166 | 3.0 | 9.0 | 0.00 | 0.54 | 0.02 | 57 | 1013.1 |
| 20260903191608 | 89 | 204 | 4.0 | 10.0 | 0.00 | 0.54 | 0.02 | 44 | 1013.7 |
| 20260903191555 | 89 | 202 | 4.0 | 7.0 | 0.00 | 0.54 | 0.02 | 56 | 1013.2 |
| 20260903190109 | 89 | 0 | 2.0 | 7.0 | 0.00 | 0.54 | 0.02 | 46 | 1013.7 |
| 20260903190054 | 89 | 146 | 1.0 | 7.0 | 0.00 | 0.54 | 0.02 | 58 | 1013.3 |
| 20260903184602 | 89 | 90 | 1.0 | 6.0 | 0.00 | 0.54 | 0.02 | 46 | 1013.6 |
| 20260903184554 | 89 | 90 | 2.0 | 5.0 | 0.00 | 0.55 | 0.02 | 58 | 1013.3 |
| 20260903183105 | 88 | 246 | 1.0 | 6.0 | 0.00 | 0.54 | 0.02 | 47 | 1013.7 |
| 20260903183050 | 88 | 246 | 1.0 | 4.0 | 0.00 | 0.55 | 0.02 | 58 | 1013.3 |
| 20260903181609 | 88 | 178 | 2.0 | 7.0 | 0.00 | 0.54 | 0.02 | 48 | 1013.9 |
| 20260903181549 | 88 | 196 | 1.0 | 7.0 | 0.00 | 0.55 | 0.02 | 60 | 1013.5 |
| 20260903180119 | 88 | 216 | 3.0 | 8.0 | 0.00 | 0.54 | 0.02 | 47 | 1014.1 |
| 20260903180048 | 88 | 216 | 3.0 | 8.0 | 0.00 | 0.55 | 0.02 | 59 | 1013.9 |
| 20260903174601 | 87 | 212 | 1.0 | 8.0 | 0.00 | 0.55 | 0.02 | 51 | 1014.5 |
| 20260903174544 | 87 | 204 | 0.0 | 4.0 | 0.00 | 0.55 | 0.02 | 62 | 1014.2 |
| 20260903173106 | 87 | 185 | 4.0 | 9.0 | 0.00 | 0.55 | 0.02 | 50 | 1014.9 |
| 20260903173043 | 87 | 185 | 4.0 | 8.0 | 0.00 | 0.55 | 0.02 | 61 | 1014.5 |
| 20260903171606 | 86 | 186 | 4.0 | 10.0 | 0.00 | 0.55 | 0.02 | 51 | 1015.2 |
| 20260903171540 | 86 | 186 | 3.0 | 9.0 | 0.00 | 0.55 | 0.02 | 62 | 1014.9 |
| 20260903170219 | 85 | 164 | 6.0 | 12.0 | 0.00 | 0.55 | 0.02 | 49 | 1015.1 |
| 20260903170038 | 85 | 167 | 5.0 | 10.0 | 0.00 | 0.55 | 0.02 | 61 | 1014.9 |
| 20260903164609 | 85 | 288 | 5.0 | 11.0 | 0.00 | 0.55 | 0.02 | 50 | 1015.1 |
| 20260903164535 | 85 | 290 | 3.0 | 11.0 | 0.00 | 0.56 | 0.02 | 62 | 1014.9 |
| 20260903163104 | 84 | 318 | 2.0 | 10.0 | 0.00 | 0.55 | 0.02 | 52 | 1015.1 |
| 20260903163039 | 84 | 289 | 2.0 | 10.0 | 0.00 | 0.56 | 0.02 | 64 | 1015.0 |
| 20260903161623 | 84 | 123 | 3.0 | 8.0 | 0.00 | 0.55 | 0.02 | 52 | 1015.1 |
| 20260903161532 | 84 | 123 | 2.0 | 8.0 | 0.00 | 0.56 | 0.02 | 64 | 1015.0 |
| 20260903160106 | 82 | 308 | 1.0 | 6.0 | 0.00 | 0.55 | 0.02 | 55 | 1015.2 |
| 20260903160035 | 82 | 306 | 1.0 | 5.0 | 0.00 | 0.56 | 0.02 | 66 | 1015.1 |
| 20260903154605 | 81 | 0 | 1.0 | 4.0 | 0.00 | 0.57 | 0.02 | 54 | 1015.2 |
| 20260903154524 | 81 | 271 | 1.0 | 4.0 | 0.00 | 0.61 | 0.02 | 66 | 1015.1 |
| 20260903153104 | 80 | 200 | 2.0 | 7.0 | 0.01 | 0.57 | 0.02 | 54 | 1015.0 |
| 20260903153020 | 80 | 200 | 1.0 | 5.0 | 0.01 | 0.61 | 0.02 | 66 | 1014.9 |
| 20260903151604 | 79 | 179 | 1.0 | 7.0 | 0.01 | 0.57 | 0.02 | 53 | 1014.9 |
| 20260903151519 | 79 | 179 | 1.0 | 6.0 | 0.01 | 0.61 | 0.02 | 64 | 1014.8 |
| 20260903150120 | 79 | 0 | 1.0 | 4.0 | 0.01 | 0.57 | 0.02 | 53 | 1015.1 |
| 20260903150017 | 78 | 208 | 1.0 | 4.0 | 0.01 | 0.61 | 0.02 | 64 | 1015.0 |
| 20260903144608 | 77 | 0 | 1.0 | 6.0 | 0.01 | 0.61 | 0.02 | 52 | 1015.2 |
| 20260903144532 | 77 | 199 | 0.0 | 6.0 | 0.01 | 0.63 | 0.02 | 64 | 1015.1 |
| 20260903143105 | 78 | 0 | 0.0 | 4.0 | 0.00 | 0.60 | 0.01 | 54 | 1015.2 |
| 20260903143016 | 78 | 256 | 0.0 | 4.0 | 0.00 | 0.62 | 0.01 | 65 | 1015.2 |
| 20260903141604 | 77 | 0 | 0.0 | 3.0 | 0.00 | 0.60 | 0.01 | 54 | 1015.1 |
| 20260903141515 | 77 | 257 | 0.0 | 3.0 | 0.00 | 0.62 | 0.01 | 66 | 1015.1 |
| 20260903140114 | 77 | 0 | 1.0 | 4.0 | 0.00 | 0.60 | 0.01 | 54 | 1015.4 |
| 20260903140014 | 77 | 253 | 1.0 | 4.0 | 0.00 | 0.62 | 0.01 | 66 | 1015.3 |
| 20260903134616 | 78 | 0 | 0.0 | 4.0 | 0.00 | 0.62 | 0.01 | 54 | 1015.4 |
| 20260903134513 | 78 | 223 | 0.0 | 4.0 | 0.00 | 0.86 | 0.01 | 66 | 1015.3 |
| 20260903133106 | 78 | 0 | 0.0 | 0.0 | 0.00 | 0.62 | 0.01 | 54 | 1015.3 |
| 20260903133016 | 78 | 162 | 0.0 | 0.0 | 0.00 | 0.86 | 0.01 | 66 | 1015.2 |
| 20260903131608 | 78 | 0 | 0.0 | 2.0 | 0.00 | 0.62 | 0.01 | 54 | 1015.3 |
| 20260903131511 | 78 | 162 | 0.0 | 2.0 | 0.00 | 0.86 | 0.01 | 66 | 1015.2 |
| 20260903130010 | 78 | 360 | 0.0 | 2.0 | 0.00 | 0.86 | 0.01 | 66 | 1015.2 |
| 20260903124631 | 77 | 360 | 1.0 | 3.0 | 0.00 | 0.86 | 0.01 | 54 | 1014.5 |
| 20260903124506 | 77 | 360 | 1.0 | 3.0 | 0.00 | 0.86 | 0.01 | 66 | 1014.5 |
| 20260903123102 | 77 | 0 | 0.0 | 0.0 | 0.00 | 0.86 | 0.01 | 54 | 1014.5 |
| 20260903123005 | 77 | 360 | 0.0 | 0.0 | 0.00 | 0.86 | 0.01 | 66 | 1014.6 |
| 20260903121558 | 77 | 360 | 1.0 | 4.0 | 0.00 | 0.86 | 0.01 | 54 | 1014.5 |
| 20260903121508 | 77 | 360 | 1.0 | 4.0 | 0.00 | 0.86 | 0.01 | 66 | 1014.4 |
| 20260903120059 | 76 | 0 | 0.0 | 0.0 | 0.00 | 0.86 | 0.01 | 54 | 1014.1 |
| 20260903120003 | 76 | 360 | 0.0 | 0.0 | 0.00 | 0.86 | 0.01 | 65 | 1014.1 |
| 20260903114609 | 77 | 0 | 0.0 | 0.0 | 0.00 | 0.86 | 0.01 | 54 | 1014.0 |
| 20260903114501 | 77 | 360 | 0.0 | 0.0 | 0.00 | 0.86 | 0.01 | 65 | 1014.0 |
| 20260903113106 | 77 | 0 | 0.0 | 0.0 | 0.00 | 0.86 | 0.01 | 54 | 1014.1 |
| 20260903113100 | 77 | 360 | 0.0 | 0.0 | 0.00 | 0.86 | 0.01 | 65 | 1014.1 |
| 20260903111601 | 77 | 0 | 0.0 | 0.0 | 0.00 | 0.86 | 0.01 | 54 | 1014.0 |
| 20260903110107 | 77 | 0 | 0.0 | 1.0 | 0.00 | 0.86 | 0.01 | 54 | 1014.0 |
| 20260903110058 | 77 | 360 | 0.0 | 1.0 | 0.00 | 0.86 | 0.01 | 65 | 1013.9 |
| 20260903104606 | 77 | 0 | 0.0 | 0.0 | 0.00 | 0.86 | 0.01 | 54 | 1013.9 |
| 20260903104602 | 77 | 360 | 0.0 | 0.0 | 0.00 | 0.86 | 0.01 | 65 | 1013.8 |
| 20260903103105 | 77 | 0 | 0.0 | 3.0 | 0.00 | 0.86 | 0.01 | 54 | 1013.9 |
| 20260903103057 | 77 | 360 | 0.0 | 3.0 | 0.00 | 0.86 | 0.01 | 65 | 1013.7 |
| 20260903101604 | 76 | 0 | 0.0 | 0.0 | 0.00 | 0.86 | 0.01 | 54 | 1013.7 |
| 20260903101559 | 76 | 360 | 0.0 | 0.0 | 0.00 | 0.86 | 0.01 | 65 | 1013.6 |
| 20260903100107 | 77 | 0 | 0.0 | 1.0 | 0.00 | 0.86 | 0.01 | 54 | 1013.7 |
| 20260903100055 | 77 | 360 | 0.0 | 1.0 | 0.00 | 0.86 | 0.01 | 65 | 1013.6 |
| 20260903094607 | 77 | 0 | 0.0 | 4.0 | 0.00 | 0.86 | 0.01 | 54 | 1013.7 |
| 20260903094605 | 77 | 360 | 0.0 | 4.0 | 0.00 | 0.86 | 0.01 | 65 | 1013.5 |
| 20260903093105 | 77 | 360 | 1.0 | 3.0 | 0.01 | 0.86 | 0.01 | 53 | 1013.7 |
| 20260903093101 | 77 | 360 | 2.0 | 3.0 | 0.01 | 0.86 | 0.01 | 65 | 1013.5 |
| 20260903091600 | 76 | 0 | 0.0 | 0.0 | 0.01 | 0.86 | 0.01 | 53 | 1013.7 |
| 20260903091558 | 76 | 360 | 0.0 | 0.0 | 0.01 | 0.86 | 0.01 | 65 | 1013.5 |
| 20260903090058 | 76 | 360 | 0.0 | 0.0 | 0.01 | 0.86 | 0.01 | 64 | 1013.4 |
| 20260903084619 | 77 | 0 | 0.0 | 0.0 | 0.01 | 0.86 | 0.01 | 53 | 1013.6 |
| 20260903084554 | 77 | 360 | 0.0 | 0.0 | 0.01 | 0.86 | 0.01 | 64 | 1013.4 |
| 20260903083108 | 77 | 0 | 0.0 | 1.0 | 0.00 | 0.85 | 0.00 | 53 | 1013.7 |
| 20260903083052 | 77 | 360 | 0.0 | 1.0 | 0.00 | 0.85 | 0.00 | 64 | 1013.4 |
| 20260903081602 | 77 | 0 | 0.0 | 1.0 | 0.00 | 0.85 | 0.00 | 53 | 1013.6 |
| 20260903081552 | 77 | 360 | 0.0 | 0.0 | 0.00 | 0.85 | 0.00 | 64 | 1013.4 |
| 20260903080105 | 77 | 0 | 0.0 | 4.0 | 0.00 | 0.85 | 0.00 | 53 | 1013.5 |
| 20260903080051 | 77 | 360 | 0.0 | 2.0 | 0.00 | 0.85 | 0.00 | 64 | 1013.4 |
| 20260903074608 | 77 | 360 | 1.0 | 4.0 | 0.00 | 0.85 | 0.00 | 53 | 1013.5 |
| 20260903074550 | 77 | 360 | 1.0 | 4.0 | 0.00 | 0.85 | 0.00 | 64 | 1013.3 |
| 20260903073108 | 77 | 360 | 1.0 | 4.0 | 0.00 | 0.85 | 0.00 | 53 | 1013.4 |
| 20260903073056 | 77 | 360 | 1.0 | 3.0 | 0.00 | 0.85 | 0.00 | 64 | 1013.2 |
| 20260903071605 | 77 | 360 | 1.0 | 6.0 | 0.00 | 0.85 | 0.00 | 53 | 1013.4 |
| 20260903071550 | 77 | 360 | 1.0 | 6.0 | 0.00 | 0.85 | 0.00 | 64 | 1013.3 |
| 20260903070104 | 77 | 360 | 2.0 | 5.0 | 0.00 | 0.85 | 0.00 | 53 | 1013.4 |
| 20260903070043 | 77 | 360 | 1.0 | 5.0 | 0.00 | 0.85 | 0.00 | 64 | 1013.2 |
| 20260903064603 | 76 | 0 | 0.0 | 4.0 | 0.00 | 0.85 | 0.00 | 53 | 1013.6 |
| 20260903064540 | 76 | 360 | 0.0 | 5.0 | 0.00 | 0.85 | 0.00 | 64 | 1013.4 |
| 20260903063103 | 76 | 0 | 0.0 | 0.0 | 0.00 | 0.85 | 0.00 | 52 | 1013.7 |
| 20260903063043 | 76 | 360 | 0.0 | 0.0 | 0.00 | 0.85 | 0.00 | 64 | 1013.4 |
| 20260903061604 | 76 | 0 | 0.0 | 0.0 | 0.00 | 0.85 | 0.00 | 52 | 1013.6 |
| 20260903061543 | 76 | 360 | 0.0 | 1.0 | 0.00 | 0.85 | 0.00 | 63 | 1013.4 |
| 20260903060108 | 76 | 0 | 0.0 | 0.0 | 0.00 | 0.85 | 0.00 | 52 | 1013.7 |
| 20260903060051 | 76 | 360 | 0.0 | 0.0 | 0.00 | 0.85 | 0.00 | 63 | 1013.4 |
| 20260903054604 | 76 | 0 | 0.0 | 1.0 | 0.00 | 0.85 | 0.00 | 52 | 1013.9 |
| 20260903054537 | 76 | 360 | 0.0 | 1.0 | 0.00 | 0.85 | 0.00 | 63 | 1013.7 |
| 20260903053107 | 76 | 360 | 0.0 | 4.0 | 0.00 | 0.85 | 0.00 | 52 | 1013.9 |
| 20260903053043 | 76 | 360 | 0.0 | 4.0 | 0.00 | 0.85 | 0.00 | 64 | 1013.7 |
| 20260903051606 | 76 | 0 | 0.0 | 3.0 | 0.00 | 0.85 | 0.00 | 52 | 1013.8 |
| 20260903051536 | 76 | 360 | 0.0 | 1.0 | 0.00 | 0.85 | 0.00 | 63 | 1013.6 |
| 20260903050106 | 76 | 0 | 1.0 | 5.0 | 0.01 | 0.85 | 0.00 | 52 | 1013.7 |
| 20260903050037 | 76 | 360 | 1.0 | 5.0 | 0.01 | 0.85 | 0.00 | 63 | 1013.5 |
| 20260903044604 | 75 | 0 | 0.0 | 3.0 | 0.01 | 0.85 | 0.85 | 52 | 1013.7 |
| 20260903044533 | 75 | 360 | 0.0 | 2.0 | 0.01 | 0.85 | 0.52 | 63 | 1013.4 |
| 20260903043101 | 75 | 0 | 0.0 | 2.0 | 0.01 | 0.85 | 0.85 | 51 | 1013.7 |
| 20260903043032 | 75 | 360 | 0.0 | 2.0 | 0.01 | 0.85 | 0.52 | 63 | 1013.5 |
| 20260903041602 | 75 | 0 | 0.0 | 2.0 | 0.02 | 0.85 | 0.85 | 51 | 1013.8 |
| 20260903041535 | 75 | 360 | 0.0 | 1.0 | 0.02 | 0.85 | 0.52 | 63 | 1013.6 |
| 20260903040107 | 75 | 0 | 0.0 | 3.0 | 0.01 | 0.84 | 0.84 | 51 | 1013.8 |
| 20260903040031 | 75 | 360 | 0.0 | 3.0 | 0.01 | 0.84 | 0.51 | 62 | 1013.6 |
| 20260903034602 | 75 | 0 | 0.0 | 0.0 | 0.02 | 0.84 | 0.84 | 51 | 1014.0 |
| 20260903034531 | 75 | 360 | 0.0 | 0.0 | 0.02 | 0.84 | 0.51 | 62 | 1013.9 |
| 20260903033110 | 75 | 0 | 0.0 | 0.0 | 0.04 | 0.84 | 0.84 | 51 | 1014.1 |
| 20260903033031 | 75 | 360 | 0.0 | 0.0 | 0.04 | 0.84 | 0.51 | 63 | 1013.9 |
| 20260903031604 | 74 | 0 | 0.0 | 0.0 | 0.05 | 0.83 | 0.83 | 51 | 1014.3 |
| 20260903031539 | 74 | 360 | 0.0 | 0.0 | 0.05 | 0.83 | 0.50 | 63 | 1014.2 |
| 20260903030106 | 74 | 0 | 0.0 | 0.0 | 0.06 | 0.83 | 0.83 | 51 | 1014.4 |
| 20260903030030 | 74 | 360 | 0.0 | 0.0 | 0.06 | 0.83 | 0.50 | 63 | 1014.2 |
| 20260903024602 | 74 | 0 | 0.0 | 0.0 | 0.06 | 0.82 | 0.82 | 51 | 1014.4 |
| 20260903024527 | 74 | 360 | 0.0 | 0.0 | 0.06 | 0.82 | 0.49 | 63 | 1014.2 |
| 20260903023104 | 74 | 0 | 0.0 | 1.0 | 0.06 | 0.80 | 0.80 | 51 | 1014.4 |
| 20260903023030 | 74 | 360 | 0.0 | 1.0 | 0.06 | 0.80 | 0.47 | 63 | 1014.2 |
| 20260903021604 | 73 | 0 | 0.0 | 1.0 | 0.07 | 0.78 | 0.78 | 52 | 1014.1 |
| 20260903021537 | 73 | 360 | 0.0 | 1.0 | 0.07 | 0.78 | 0.45 | 63 | 1013.9 |
| 20260903020104 | 73 | 0 | 0.0 | 3.0 | 0.09 | 0.77 | 0.77 | 52 | 1013.8 |
| 20260903020027 | 73 | 360 | 0.0 | 3.0 | 0.09 | 0.77 | 0.44 | 63 | 1013.5 |
| 20260903014612 | 73 | 360 | 0.0 | 3.0 | 0.10 | 0.76 | 0.76 | 52 | 1013.8 |
| 20260903014522 | 73 | 360 | 1.0 | 3.0 | 0.10 | 0.76 | 0.43 | 64 | 1013.5 |
| 20260903013100 | 73 | 360 | 1.0 | 3.0 | 0.11 | 0.74 | 0.74 | 53 | 1013.8 |
| 20260903013021 | 73 | 360 | 1.0 | 3.0 | 0.11 | 0.74 | 0.41 | 64 | 1013.5 |
| 20260903011602 | 73 | 0 | 0.0 | 0.0 | 0.11 | 0.71 | 0.71 | 53 | 1013.6 |
| 20260903011525 | 73 | 360 | 0.0 | 0.0 | 0.11 | 0.71 | 0.38 | 65 | 1013.3 |
| 20260903010105 | 74 | 0 | 0.0 | 3.0 | 0.10 | 0.68 | 0.68 | 54 | 1013.6 |
| 20260903010025 | 74 | 360 | 0.0 | 3.0 | 0.10 | 0.68 | 0.35 | 65 | 1013.3 |
| 20260903004601 | 74 | 0 | 1.0 | 3.0 | 0.14 | 0.66 | 0.66 | 54 | 1013.8 |
| 20260903004522 | 74 | 360 | 0.0 | 3.0 | 0.14 | 0.66 | 0.33 | 66 | 1013.5 |
| 20260903003100 | 74 | 360 | 0.0 | 3.0 | 0.14 | 0.63 | 0.63 | 55 | 1013.8 |
| 20260903003018 | 74 | 360 | 0.0 | 3.0 | 0.14 | 0.63 | 0.30 | 66 | 1013.4 |
| 20260903001600 | 74 | 0 | 0.0 | 2.0 | 0.11 | 0.60 | 0.60 | 55 | 1013.9 |
| 20260903001517 | 74 | 360 | 0.0 | 2.0 | 0.11 | 0.60 | 0.27 | 67 | 1013.5 |
| 20260903000103 | 74 | 0 | 0.0 | 3.0 | 0.21 | 0.58 | 0.58 | 56 | 1013.9 |
| 20260903000034 | 74 | 360 | 0.0 | 3.0 | 0.21 | 0.56 | 0.24 | 67 | 1013.7 |
| 20260902234601 | 74 | 360 | 1.0 | 3.0 | 0.19 | 0.52 | 0.52 | 57 | 1014.0 |
| 20260902234515 | 74 | 360 | 0.0 | 3.0 | 0.19 | 0.52 | 0.19 | 68 | 1013.7 |